Alfonso Bonilla Aragon International Airport
SKCL : now visible

Airfield :











YOU CAN JOIN US ON...

 
LOGIN :

Register | Disclaimer

   EN    FR    IT 

 









Legend :    VFR   Marginal VFR   IFR   Intensive IFR   Very Intensive IFR
Visi :
Ceiling :
>= 8 km
>= 3000ft
5 to 8 km
1000 to 3000 ft
1500m to 5 km
500 to 1000 ft
800 to 1500m
200 to 500 ft
< 800m
< 200 ft
Symbols :   Thunderstorms  Fog  Heavy snow  Heavy precipitations  Wind > 20 kt






- Airport Elevation : 3162 ft
- IATA code : CLO


SKCL - Alfonso Bonilla Aragon International

CURRENT METAR :
  • 100900Z VRB02KT 9999 FEW030 BKN090 21/20 A2994 NOSIG

EXPIRED METARs :
  • 100800Z VRB02KT 9999 FEW030 BKN090 22/20 A2995 NOSIG
  • 100700Z 00000KT 9999 SCT030 BKN090 22/20 A2995 NOSIG

TAF TAF SKCL
Valid from the 10 at 06:00 until the 11 at 06:00 UTC


100430Z 1006/1106 05004KT 9999 SCT025 BKN100
BECMG 1020/1022 32012KT
PROB40
TEMPO 1022/1101 TS SCT017CB BKN100 TX31/1019Z TN22/1010Z



MET'MAP, your aeronautical weather chart ! - Copyright ORBIFLY December 2007 - Disclaimer

ORBIFLY MET'MAP TEAM :

Programming & Development : Alexandra Zaïnal
Concept & original design : Baudouin d'Aumeries
Assistance for programming : Marc-Olivier Méhu
Technical & hardware support : Manuel Goepfert

Contact : metmap@orbifly.com




SOURCES & CREDITS :

   NOAA       Earth
Advisory